Location: Strawberry
(45.6646°N, 111.9596°W)
Time: 15:13:10
(UTC+00:00)

Tiros 1 - Visible Passes

Search period start: 26 September 2022 00:00
Search period end: 06 October 2022 00:00
Orbit: 629 x 663 km, 48.4° (Epoch: 25 September)

Date Brightness Start Highest point End Pass type
(mag) Time Alt. Az. Time Alt. Az. Time Alt. Az.
26 Sep 8.7 10:13:23 34° ENE 10:13:23 34° ENE 10:16:04 10° ENE visible
26 Sep 7.4 11:51:01 25° WNW 11:53:40 62° N 11:58:21 10° ENE visible
27 Sep 7.7 10:37:56 56° NE 10:37:56 56° NE 10:41:45 10° ENE visible
27 Sep 7.4 12:15:34 15° WNW 12:19:29 64° N 12:24:10 10° E visible
28 Sep 10.1 09:24:50 12° ENE 09:24:50 12° ENE 09:25:12 10° ENE visible
28 Sep 7.3 11:02:29 61° NNW 11:02:47 63° N 11:07:29 10° ENE visible
28 Sep 7.3 12:40:29 10° WNW 12:45:15 79° NNE 12:49:58 10° ESE visible
29 Sep 9.6 09:49:25 20° ENE 09:49:25 20° ENE 09:50:53 10° ENE visible
29 Sep 7.4 11:27:03 40° WNW 11:28:36 63° N 11:33:18 10° E visible
30 Sep 8.8 10:14:01 31° ENE 10:14:01 31° ENE 10:16:36 10° ENE visible
30 Sep 7.2 11:51:41 26° WNW 11:54:22 77° NNE 11:59:06 10° ESE visible
01 Oct 8.0 10:38:42 49° NE 10:38:42 49° NE 10:42:25 10° E visible
01 Oct 7.1 12:16:21 17° WNW 12:20:02 75° SSW 12:24:44 10° ESE visible
02 Oct 7.2 11:03:27 74° N 11:03:29 74° NNE 11:08:13 10° E visible
02 Oct 7.6 12:41:06 10° WNW 12:45:33 44° SSW 12:50:00 10° SE visible
03 Oct 9.8 09:50:37 15° E 09:50:37 15° E 09:51:31 10° E visible
03 Oct 7.0 11:28:17 58° W 11:29:10 79° SSW 11:33:53 10° ESE visible
04 Oct 9.3 10:15:33 23° E 10:15:33 23° E 10:17:20 10° E visible
04 Oct 7.5 11:53:13 35° W 11:54:42 47° SSW 11:59:13 10° SE visible
05 Oct 8.7 10:40:37 30° ESE 10:40:37 30° ESE 10:43:01 10° ESE visible
05 Oct 8.3 12:18:18 20° WSW 12:20:03 26° SW 12:23:55 10° SSE visible
